DW6455 Orivesi FI current weather conditions

sailwx.info

Wind from 315 at 0 knots gusting 1

Air temperature 11.1° C
Dewpoint 10.3° C

Last reported at 2015-Jul-05 01:52 UTC.
Time now 2015-Jul-05 02:44 UTC

Location: N 61°39' E 024°21'.
View on Google Maps.

See reports from other nearby stations

  
Tides and Currents Weather Stations Pressure Air Temp Water Temp Dewpoint Dewpoint Depression Visibility Wind Speed Wind Dir Waves Ship Positions
date/time (UTC)wind fromknots sea level pressurealtimeterstation pressurevisibilityair tempwater tempwave heightnotes
2015-Jul-05 01:52 315 0 gusting 1 11.1
2015-Jul-05 01:47 315 11.7
2015-Jul-05 01:42 315 11.7
2015-Jul-05 01:37 315 11.7
2015-Jul-05 01:32 315 11.7
2015-Jul-05 01:27 315 11.7
2015-Jul-05 01:22 315 11.7
2015-Jul-05 01:17 315 11.7
2015-Jul-05 01:12 315 11.7
2015-Jul-05 01:07 315 11.7
2015-Jul-05 01:02 315 12.2
2015-Jul-05 00:57 315 12.2
2015-Jul-05 00:52 315 12.2
2015-Jul-05 00:47 315 12.2
2015-Jul-05 00:37 315 12.2
2015-Jul-05 00:32 315 12.8
2015-Jul-05 00:27 315 0 gusting 1 12.8
2015-Jul-05 00:22 315 0 gusting 1 12.8
2015-Jul-05 00:17 315 12.8
2015-Jul-05 00:12 315 12.8
2015-Jul-05 00:07 315 13.3
2015-Jul-05 00:02 315 13.3
2015-Jul-04 23:57 315 0 gusting 3 13.3
2015-Jul-04 23:52 005 13.3
2015-Jul-04 23:47 005 13.3
2015-Jul-04 23:42 005 13.9
2015-Jul-04 23:37 005 13.9
2015-Jul-04 23:32 005 14.4
2015-Jul-04 23:27 005 14.4
2015-Jul-04 23:22 005 14.4
2015-Jul-04 23:17 005 14.4
2015-Jul-04 23:12 005 14.4
2015-Jul-04 23:07 005 15.0
2015-Jul-04 23:02 005 15.0
2015-Jul-04 22:57 005 15.0
2015-Jul-04 22:52 005 14.4
2015-Jul-04 22:47 005 14.4
2015-Jul-04 22:42 005 0 gusting 4 14.4
2015-Jul-04 22:37 005 0 gusting 4 14.4
2015-Jul-04 22:32 355 0 gusting 5 14.4
2015-Jul-04 22:27 355 1 gusting 6 14.4
2015-Jul-04 22:22 355 2 gusting 6 14.4
2015-Jul-04 22:17 346 1 gusting 6 14.4
2015-Jul-04 22:12 005 1 gusting 5 14.4
2015-Jul-04 22:07 348 1 gusting 5 14.4
2015-Jul-04 22:02 342 1 gusting 5 14.4
2015-Jul-04 21:57 342 1 gusting 6 15.0
2015-Jul-04 21:52 355 1 gusting 6 15.0
2015-Jul-04 21:47 350 1 gusting 6 15.0
2015-Jul-04 21:42 355 1 gusting 6 15.0
2015-Jul-04 21:37 346 1 gusting 6 15.0
2015-Jul-04 21:32 331 1 gusting 5 15.6
2015-Jul-04 21:27 323 1 gusting 5 15.6
2015-Jul-04 21:22 322 1 gusting 5 15.6
2015-Jul-04 21:17 316 1 gusting 5 15.6
2015-Jul-04 21:12 016 1 gusting 6 15.6
2015-Jul-04 21:07 339 2 gusting 7 15.6
2015-Jul-04 21:02 331 2 gusting 8 15.6
2015-Jul-04 20:57 020 2 gusting 8 15.6
2015-Jul-04 20:52 325 2 gusting 10 15.6
2015-Jul-04 20:47 348 2 gusting 10 16.1
2015-Jul-04 20:42 340 2 gusting 10 16.1
2015-Jul-04 20:37 005 2 gusting 9 16.1
2015-Jul-04 20:32 347 2 gusting 6 16.1
2015-Jul-04 20:27 333 1 gusting 6 16.1
2015-Jul-04 20:22 332 1 gusting 6 16.1
2015-Jul-04 20:17 320 1 gusting 7 16.7
2015-Jul-04 20:12 325 2 gusting 7 16.7
2015-Jul-04 20:07 331 2 gusting 7 16.7
2015-Jul-04 20:02 333 2 gusting 7 16.7
2015-Jul-04 19:57 341 2 gusting 10 16.7
2015-Jul-04 19:52 341 2 gusting 10 16.7
2015-Jul-04 19:47 333 2 gusting 10 17.2
2015-Jul-04 19:42 327 3 gusting 9 17.2
2015-Jul-04 19:37 327 3 gusting 8 17.2
2015-Jul-04 19:32 341 2 gusting 9 17.2
2015-Jul-04 19:27 327 1 gusting 9 17.8
2015-Jul-04 19:22 336 1 gusting 9 17.8
2015-Jul-04 19:17 297 0 gusting 5 17.8
2015-Jul-04 19:12 005 0 gusting 3 18.3
2015-Jul-04 19:07 005 0 gusting 5 18.3
2015-Jul-04 19:02 005 0 gusting 6 18.3
2015-Jul-04 18:57 005 2 gusting 8 18.3
2015-Jul-04 18:52 347 3 gusting 10 18.9
2015-Jul-04 18:47 009 4 gusting 13 18.9
2015-Jul-04 18:42 355 5 gusting 13 18.9
2015-Jul-04 18:37 355 5 gusting 10 18.9
2015-Jul-04 18:32 315 3 gusting 10 18.9
2015-Jul-04 18:27 025 3 gusting 10 18.9
2015-Jul-04 18:22 321 3 gusting 11 19.4
2015-Jul-04 18:17 325 4 gusting 13 19.4
2015-Jul-04 18:12 355 5 gusting 13 19.4
2015-Jul-04 18:07 012 6 gusting 13 19.4
2015-Jul-04 18:02 005 6 gusting 13 20.0
2015-Jul-04 17:57 005 6 gusting 13 20.0
2015-Jul-04 17:52 036 6 gusting 15 20.6
2015-Jul-04 17:47 355 7 gusting 15 20.6
2015-Jul-04 17:42 355 7 gusting 14 20.6
2015-Jul-04 17:37 340 6 gusting 10 20.6
2015-Jul-04 17:32 337 5 gusting 9 20.6
2015-Jul-04 17:27 323 4 gusting 10 20.6
2015-Jul-04 17:22 009 3 gusting 10 21.1
2015-Jul-04 17:17 015 3 gusting 10 21.1
2015-Jul-04 17:12 355 4 gusting 14 21.7
2015-Jul-04 17:07 312 4 gusting 15 21.7
2015-Jul-04 17:02 345 4 gusting 15 21.7
2015-Jul-04 16:57 349 6 gusting 15 21.7
2015-Jul-04 16:52 331 6 gusting 12 21.7
2015-Jul-04 16:47 291 4 gusting 11 21.7
2015-Jul-04 16:42 296 3 gusting 11 21.7
2015-Jul-04 16:37 302 3 gusting 13 22.2
2015-Jul-04 16:32 335 4 gusting 13 22.2
2015-Jul-04 16:27 313 4 gusting 13 22.2
2015-Jul-04 16:22 323 4 gusting 11 22.2
2015-Jul-04 16:17 355 4 gusting 11 22.2
2015-Jul-04 16:12 298 3 gusting 10 22.2
2015-Jul-04 16:07 313 3 gusting 10 21.7
2015-Jul-04 16:02 031 4 gusting 11 22.2
2015-Jul-04 15:57 323 5 gusting 11 22.2
2015-Jul-04 15:52 311 5 gusting 11 22.2
2015-Jul-04 15:47 319 4 gusting 13 22.2
2015-Jul-04 15:42 351 4 gusting 13 22.8
2015-Jul-04 15:37 296 3 gusting 14 22.8
2015-Jul-04 15:32 290 3 gusting 15 23.3
2015-Jul-04 15:27 286 4 gusting 15 23.3
2015-Jul-04 15:22 284 4 gusting 15 23.3
2015-Jul-04 15:17 301 5 gusting 14 23.9
2015-Jul-04 15:12 312 6 gusting 14 23.9
2015-Jul-04 15:07 307 5 gusting 14 23.3
2015-Jul-04 15:02 325 4 gusting 11 23.9
2015-Jul-04 14:57 342 3 gusting 13 23.9
2015-Jul-04 14:52 267 3 gusting 13 23.9
2015-Jul-04 14:47 299 4 gusting 13 24.4
2015-Jul-04 14:42 321 4 gusting 17 24.4
2015-Jul-04 14:37 304 5 gusting 17 24.4
2015-Jul-04 14:32 321 4 gusting 17 24.4
2015-Jul-04 14:27 292 4 gusting 12 24.4
2015-Jul-04 14:22 297 4 gusting 12 24.4
2015-Jul-04 14:17 264 3 gusting 13 25.0
2015-Jul-04 14:12 184 3 gusting 14 25.0
2015-Jul-04 14:07 296 4 gusting 14 25.0
2015-Jul-04 14:02 300 3 gusting 14 25.0
2015-Jul-04 13:57 309 3 gusting 13 25.0
2015-Jul-04 13:52 290 3 gusting 9 25.0
2015-Jul-04 13:47 275 3 gusting 13 25.0
2015-Jul-04 13:42 303 3 gusting 13 25.0
2015-Jul-04 13:37 310 3 gusting 13 25.0
2015-Jul-04 13:32 339 4 gusting 15 25.6
2015-Jul-04 13:27 320 5 gusting 18 25.6
2015-Jul-04 13:22 275 6 gusting 18 25.6
2015-Jul-04 13:17 336 6 gusting 18 25.6
2015-Jul-04 13:12 286 6 gusting 16 25.6
2015-Jul-04 13:07 348 5 gusting 16 25.6
2015-Jul-04 13:02 303 5 gusting 16 25.6
2015-Jul-04 12:57 298 5 gusting 13 26.1
2015-Jul-04 12:52 230 3 gusting 17 26.1
2015-Jul-04 12:47 348 3 gusting 17 26.1
2015-Jul-04 12:42 309 3 gusting 13 25.6
2015-Jul-04 12:37 272 4 gusting 17 25.6
2015-Jul-04 12:32 279 5 gusting 17 25.6
2015-Jul-04 12:27 317 5 gusting 15 25.6
2015-Jul-04 12:22 271 5 gusting 15 25.6
2015-Jul-04 12:17 298 4 gusting 12 25.6
2015-Jul-04 12:12 310 3 gusting 11 25.6
2015-Jul-04 12:07 271 3 gusting 11 25.6
2015-Jul-04 12:02 220 3 gusting 11 25.6
2015-Jul-04 11:57 279 3 gusting 11 25.6
2015-Jul-04 11:52 309 3 gusting 13 25.6
2015-Jul-04 11:47 246 3 gusting 13 25.6
2015-Jul-04 11:42 269 4 gusting 13 25.6
2015-Jul-04 11:37 25.6
2015-Jul-04 11:32 287 4 gusting 13 25.6
2015-Jul-04 11:27 314 4 gusting 15 25.6
2015-Jul-04 11:22 317 5 gusting 15 25.6
2015-Jul-04 11:17 319 4 gusting 15 25.6
2015-Jul-04 11:12 302 3 gusting 14 25.6
2015-Jul-04 11:07 288 4 gusting 14 25.6
2015-Jul-04 11:02 293 5 gusting 14 25.6
2015-Jul-04 10:57 230 5 gusting 13 25.6
2015-Jul-04 10:52 326 4 gusting 13 25.6
2015-Jul-04 10:47 293 4 gusting 17 25.0
2015-Jul-04 10:42 296 5 gusting 17 25.0
2015-Jul-04 10:37 307 5 gusting 15 25.0
2015-Jul-04 10:32 296 4 gusting 13 25.0
2015-Jul-04 10:27 211 3 gusting 13 25.0
2015-Jul-04 10:22 282 4 gusting 13 25.0
2015-Jul-04 10:17 270 4 gusting 16 25.0
2015-Jul-04 10:12 323 3 gusting 13 25.0
2015-Jul-04 10:07 311 3 gusting 13 25.0
2015-Jul-04 10:02 281 4 gusting 11 25.0
2015-Jul-04 09:57 292 3 gusting 11 25.0
2015-Jul-04 09:52 290 3 gusting 11 25.0
2015-Jul-04 09:47 286 3 gusting 11 25.0
2015-Jul-04 09:42 303 2 gusting 10 24.4
2015-Jul-04 09:37 284 2 gusting 10 24.4
2015-Jul-04 09:32 304 3 gusting 9 24.4
2015-Jul-04 09:27 258 2 gusting 9 24.4
2015-Jul-04 09:22 292 2 gusting 6 24.4
2015-Jul-04 09:17 312 1 gusting 7 24.4
2015-Jul-04 09:12 306 1 gusting 7 24.4
2015-Jul-04 09:07 306 2 gusting 10 24.4
2015-Jul-04 09:02 252 3 gusting 10 24.4
2015-Jul-04 08:57 348 4 gusting 10 24.4
2015-Jul-04 08:52 326 3 gusting 9 24.4
2015-Jul-04 08:47 311 1 gusting 12 24.4
2015-Jul-04 08:42 303 2 gusting 12 24.4
2015-Jul-04 08:37 188 3 gusting 12 24.4
2015-Jul-04 08:32 302 2 gusting 9 24.4
2015-Jul-04 08:27 306 2 gusting 9 24.4
2015-Jul-04 08:22 301 2 gusting 9 24.4
2015-Jul-04 08:17 312 2 gusting 9 24.4
2015-Jul-04 08:12 244 1 gusting 9 24.4
2015-Jul-04 08:07 292 2 gusting 9 24.4
2015-Jul-04 08:02 302 3 gusting 11 24.4
2015-Jul-04 07:57 304 4 gusting 11 24.4
2015-Jul-04 07:52 325 4 gusting 11 24.4
2015-Jul-04 07:47 319 3 gusting 11 24.4
2015-Jul-04 07:42 338 3 gusting 10 24.4
2015-Jul-04 07:37 258 2 gusting 9 23.9
2015-Jul-04 07:32 268 3 gusting 10 23.9
2015-Jul-04 07:27 316 3 gusting 10 23.9
2015-Jul-04 07:22 288 3 gusting 10 23.9
2015-Jul-04 07:17 340 2 gusting 8 23.3
2015-Jul-04 07:12 277 2 gusting 12 23.3
2015-Jul-04 07:07 322 4 gusting 12 23.3
2015-Jul-04 07:02 327 3 gusting 7 22.8
2015-Jul-04 06:57 312 2 gusting 7 22.8
2015-Jul-04 06:52 261 2 gusting 9 22.8
2015-Jul-04 06:47 293 2 gusting 9 22.8
2015-Jul-04 06:42 290 2 gusting 9 22.8
2015-Jul-04 06:37 290 1 gusting 6 22.8
2015-Jul-04 06:32 351 1 gusting 12 22.8
2015-Jul-04 06:27 295 2 gusting 12 22.8
2015-Jul-04 06:22 293 4 gusting 13 22.8
2015-Jul-04 06:17 338 4 gusting 13 22.8
2015-Jul-04 06:12 288 3 gusting 13 23.3
2015-Jul-04 06:07 334 2 gusting 7 23.3
2015-Jul-04 06:02 317 2 gusting 10 23.9
2015-Jul-04 05:57 273 1 gusting 10 23.9
2015-Jul-04 05:52 309 2 gusting 12 23.9
2015-Jul-04 05:47 337 4 gusting 12 23.9
2015-Jul-04 05:42 310 2 gusting 12 24.4
2015-Jul-04 05:37 310 2 gusting 10 23.9
2015-Jul-04 05:32 342 3 gusting 8 23.9
2015-Jul-04 05:27 312 3 gusting 8 23.3
2015-Jul-04 05:22 355 3 gusting 8 22.8
2015-Jul-04 05:17 335 3 gusting 12 22.8
2015-Jul-04 05:12 313 3 gusting 12 22.2
2015-Jul-04 05:07 313 4 gusting 12 22.2
2015-Jul-04 05:02 327 3 gusting 13 21.7
2015-Jul-04 04:57 337 4 gusting 13 21.7
2015-Jul-04 04:52 328 4 gusting 13 21.1
2015-Jul-04 04:47 355 3 gusting 9 20.6
2015-Jul-04 04:42 313 2 gusting 7 20.6
2015-Jul-04 04:37 328 2 gusting 7 20.6
2015-Jul-04 04:32 341 2 gusting 9 20.6
2015-Jul-04 04:27 304 2 gusting 9 20.6
2015-Jul-04 04:22 288 3 gusting 9 20.6
2015-Jul-04 04:17 281 3 gusting 11 20.0
2015-Jul-04 04:12 314 3 gusting 10 20.0
2015-Jul-04 04:07 350 2 gusting 10 20.0
2015-Jul-04 04:02 299 1 gusting 10 20.0
2015-Jul-04 03:57 289 3 gusting 10 20.0
2015-Jul-04 03:52 333 2 gusting 9 19.4
2015-Jul-04 03:47 329 2 gusting 9 19.4
2015-Jul-04 03:42 340 3 gusting 6 19.4
2015-Jul-04 03:37 298 2 gusting 6 19.4
2015-Jul-04 03:32 298 1 gusting 6 19.4
2015-Jul-04 03:27 248 1 gusting 7 18.9
2015-Jul-04 03:22 340 1 gusting 7 18.9
2015-Jul-04 03:17 296 2 gusting 9 18.9
2015-Jul-04 03:12 304 2 gusting 9 18.9
2015-Jul-04 03:07 279 1 gusting 9 18.9
2015-Jul-04 03:02 312 1 gusting 9 18.9
2015-Jul-04 02:57 321 1 gusting 9 18.9
2015-Jul-04 02:52 294 2 gusting 10 18.9
2015-Jul-04 02:47 306 2 gusting 10 18.9
2015-Jul-04 02:42 296 2 gusting 10 18.9
2015-Jul-04 02:37 318 1 gusting 7 18.9
2015-Jul-04 02:32 303 1 gusting 11 18.3
2015-Jul-04 02:27 221 2 gusting 11 18.3
2015-Jul-04 02:22 278 2 gusting 8 18.3
2015-Jul-04 02:17 281 2 gusting 8 18.3
2015-Jul-04 02:12 300 1 gusting 8 18.3
2015-Jul-04 02:07 267 1 gusting 6 18.3
2015-Jul-04 02:02 260 1 gusting 6 17.8
2015-Jul-04 01:57 302 1 gusting 6 17.8
2015-Jul-04 01:52 293 1 gusting 6 17.8
2015-Jul-04 01:47 276 0 gusting 6 17.8
2015-Jul-04 01:42 290 0 gusting 7 17.8
2015-Jul-04 01:37 311 0 gusting 7 17.8
2015-Jul-04 01:32 297 0 gusting 7 17.8
2015-Jul-04 01:27 298 0 gusting 5 17.8
2015-Jul-04 01:22 261 17.8
2015-Jul-04 01:17 261 0 gusting 9 17.8
2015-Jul-04 01:12 267 0 gusting 9 18.3
2015-Jul-04 01:07 309 0 gusting 9 18.3
2015-Jul-04 01:02 304 0 gusting 6 18.3
2015-Jul-04 00:57 286 0 gusting 6 18.3
2015-Jul-04 00:52 269 18.3
2015-Jul-04 00:47 236 0 gusting 10 17.8
2015-Jul-04 00:42 248 0 gusting 10 17.8
2015-Jul-04 00:37 175 0 gusting 7 17.8
2015-Jul-04 00:32 283 0 gusting 7 17.8
2015-Jul-04 00:27 238 0 gusting 7 17.8
2015-Jul-04 00:22 259 0 gusting 8 17.8
2015-Jul-04 00:17 275 0 gusting 8 17.8
2015-Jul-04 00:12 297 0 gusting 6 17.8
2015-Jul-04 00:07 179 0 gusting 6 17.2
2015-Jul-04 00:02 248 0 gusting 7 17.2
2015-Jul-03 23:57 252 0 gusting 10 17.2
2015-Jul-03 23:52 261 1 gusting 10 17.2
2015-Jul-03 23:47 269 1 gusting 10 16.7
2015-Jul-03 23:42 221 0 gusting 6 16.7
2015-Jul-03 23:37 240 0 gusting 6 16.7
2015-Jul-03 23:32 261 0 gusting 6 16.7
2015-Jul-03 23:27 200 0 gusting 6 16.7
2015-Jul-03 23:22 215 1 gusting 6 16.7
2015-Jul-03 23:17 194 1 gusting 7 16.7
2015-Jul-03 23:12 221 1 gusting 7 16.7
2015-Jul-03 23:07 240 1 gusting 7 16.7
2015-Jul-03 23:02 261 1 gusting 6 16.7
2015-Jul-03 22:57 198 1 gusting 8 17.2
2015-Jul-03 22:52 226 2 gusting 8 17.2
2015-Jul-03 22:47 277 2 gusting 8 17.2
2015-Jul-03 22:42 251 2 gusting 8 17.2
2015-Jul-03 22:37 200 2 gusting 7 17.2
2015-Jul-03 22:32 219 2 gusting 7 17.2
2015-Jul-03 22:27 227 1 gusting 7 17.2
2015-Jul-03 22:22 246 2 gusting 8 17.2
2015-Jul-03 22:17 229 2 gusting 8 17.2
2015-Jul-03 22:12 241 1 gusting 8 17.2
2015-Jul-03 22:07 227 1 gusting 9 17.8
2015-Jul-03 22:02 225 2 gusting 10 17.8
2015-Jul-03 21:57 275 2 gusting 10 17.8
2015-Jul-03 21:52 223 3 gusting 11 17.8
2015-Jul-03 21:47 206 3 gusting 11 17.8
2015-Jul-03 21:42 242 2 gusting 11 17.8
2015-Jul-03 21:37 234 2 gusting 7 17.8
2015-Jul-03 21:32 204 2 gusting 6 17.8
2015-Jul-03 21:27 258 2 gusting 6 18.3
2015-Jul-03 21:22 249 2 gusting 6 18.3
2015-Jul-03 21:17 259 1 gusting 7 18.3
2015-Jul-03 21:12 207 2 gusting 7 18.3
2015-Jul-03 21:07 265 2 gusting 6 18.3
2015-Jul-03 21:02 348 2 gusting 8 18.3
2015-Jul-03 20:57 219 2 gusting 8 18.9
2015-Jul-03 20:52 279 2 gusting 8 18.9
2015-Jul-03 20:47 251 2 gusting 11 18.9
2015-Jul-03 20:42 209 2 gusting 11 18.9
2015-Jul-03 20:37 233 2 gusting 11 19.4
2015-Jul-03 20:32 240 2 gusting 8 19.4
2015-Jul-03 20:27 238 1 gusting 9 19.4
2015-Jul-03 20:22 225 1 gusting 10 19.4
2015-Jul-03 20:17 219 2 gusting 10 20.0
2015-Jul-03 20:12 244 2 gusting 10 20.0
2015-Jul-03 20:07 224 1 gusting 9 20.0
2015-Jul-03 20:02 207 2 gusting 9 20.6
2015-Jul-03 19:57 202 2 gusting 10 20.6
2015-Jul-03 19:52 281 1 gusting 10 20.6
2015-Jul-03 19:47 227 2 gusting 9 21.1
2015-Jul-03 19:42 204 2 gusting 9 21.1
2015-Jul-03 19:37 219 2 gusting 9 21.1
2015-Jul-03 19:32 220 2 gusting 9 21.1
2015-Jul-03 19:27 232 2 gusting 9 21.7
2015-Jul-03 19:22 230 1 gusting 7 21.7
2015-Jul-03 19:17 286 1 gusting 7 21.7
2015-Jul-03 19:12 212 1 gusting 7 22.2
2015-Jul-03 19:07 239 1 gusting 7 22.2
2015-Jul-03 19:02 251 2 gusting 8 22.2
2015-Jul-03 18:57 253 2 gusting 8 22.8
2015-Jul-03 18:52 230 1 gusting 8 22.8
2015-Jul-03 18:47 227 0 gusting 8 22.8
2015-Jul-03 18:42 207 1 gusting 8 23.3
2015-Jul-03 18:37 240 2 gusting 9 23.3
2015-Jul-03 18:32 248 2 gusting 9 23.3
2015-Jul-03 18:27 232 1 gusting 9 23.3
2015-Jul-03 18:22 286 1 gusting 8 23.3
2015-Jul-03 18:17 232 2 gusting 13 23.9
2015-Jul-03 18:12 313 2 gusting 13 23.9
2015-Jul-03 18:07 265 2 gusting 13 23.9
2015-Jul-03 18:02 230 2 gusting 14 23.9
2015-Jul-03 17:57 226 2 gusting 14 24.4
2015-Jul-03 17:52 260 3 gusting 14 24.4
2015-Jul-03 17:47 302 2 gusting 8 24.4
2015-Jul-03 17:42 350 1 gusting 9 24.4
2015-Jul-03 17:37 258 2 gusting 13 24.4
2015-Jul-03 17:32 290 3 gusting 13 25.0
2015-Jul-03 17:27 257 3 gusting 13 25.0
2015-Jul-03 17:22 242 2 gusting 9 25.0
2015-Jul-03 17:17 267 1 gusting 8 25.0
2015-Jul-03 17:12 243 1 gusting 12 25.0
2015-Jul-03 17:07 301 2 gusting 12 25.0
2015-Jul-03 17:02 249 3 gusting 12 25.6
2015-Jul-03 16:57 223 2 gusting 11 25.6
2015-Jul-03 16:52 346 1 gusting 9 25.6
2015-Jul-03 16:47 260 2 gusting 9 25.6
2015-Jul-03 16:42 271 3 gusting 12 25.6
2015-Jul-03 16:37 306 2 gusting 12 26.1
2015-Jul-03 16:32 275 2 gusting 12 26.1
2015-Jul-03 16:27 259 1 gusting 10 26.7
2015-Jul-03 16:22 304 2 gusting 14 26.7
2015-Jul-03 16:17 273 4 gusting 14 26.7
2015-Jul-03 16:12 271 3 gusting 14 26.7
2015-Jul-03 16:07 244 2 gusting 15 26.7
2015-Jul-03 16:02 309 3 gusting 15 26.7
2015-Jul-03 15:57 279 4 gusting 15 26.7
2015-Jul-03 15:52 286 3 gusting 12 26.1
2015-Jul-03 15:47 270 3 gusting 17 26.1
2015-Jul-03 15:42 257 4 gusting 17 26.1
2015-Jul-03 15:37 269 3 gusting 17 26.1
2015-Jul-03 15:32 230 2 gusting 12 26.1
2015-Jul-03 15:27 233 4 gusting 12 26.1
2015-Jul-03 15:22 261 4 gusting 15 26.7
2015-Jul-03 15:17 280 2 gusting 15 26.7
2015-Jul-03 15:12 284 2 gusting 15 26.7
2015-Jul-03 15:07 265 2 gusting 13 26.7
2015-Jul-03 15:02 271 2 gusting 13 26.7
2015-Jul-03 14:57 200 3 gusting 11 27.2
2015-Jul-03 14:52 215 2 gusting 10 27.2
2015-Jul-03 14:47 281 3 gusting 13 27.2
2015-Jul-03 14:42 296 3 gusting 13 27.2
2015-Jul-03 14:37 256 3 gusting 13 27.2
2015-Jul-03 14:32 307 2 gusting 12 27.2
2015-Jul-03 14:27 184 4 gusting 12 27.2
2015-Jul-03 14:22 238 5 gusting 12 27.2
2015-Jul-03 14:17 296 4 gusting 13 27.2
2015-Jul-03 14:12 290 3 gusting 13 27.2
2015-Jul-03 14:07 299 4 gusting 13 27.2
2015-Jul-03 14:02 248 3 gusting 14 27.2
2015-Jul-03 13:57 270 4 gusting 17 27.2
2015-Jul-03 13:52 302 5 gusting 17 27.2
2015-Jul-03 13:47 246 5 gusting 14 27.8
2015-Jul-03 13:42 271 5 gusting 14 27.2
2015-Jul-03 13:37 327 6 gusting 23 27.8
2015-Jul-03 13:32 290 5 gusting 24 27.8
2015-Jul-03 13:27 261 6 gusting 24 27.8
2015-Jul-03 13:22 267 6 gusting 24 27.8
2015-Jul-03 13:17 339 6 gusting 16 27.8
2015-Jul-03 13:12 311 6 gusting 18 27.8
2015-Jul-03 13:07 298 5 gusting 18 28.3
2015-Jul-03 13:02 290 4 gusting 18 28.3
2015-Jul-03 12:57 310 4 gusting 14 28.3
2015-Jul-03 12:52 302 3 gusting 14 28.3
2015-Jul-03 12:47 240 5 gusting 21 28.3
2015-Jul-03 12:42 269 6 gusting 21 28.3
2015-Jul-03 12:37 168 5 gusting 13 28.3
2015-Jul-03 12:32 313 3 gusting 17 28.3
2015-Jul-03 12:27 238 3 gusting 17 28.3
2015-Jul-03 12:22 225 4 gusting 17 28.3
2015-Jul-03 12:17 286 5 gusting 13 28.3
2015-Jul-03 12:12 296 5 gusting 17 28.3
2015-Jul-03 12:07 273 5 gusting 17 28.3
2015-Jul-03 12:02 290 4 gusting 17 28.3
2015-Jul-03 11:57 266 4 gusting 14 28.3
2015-Jul-03 11:52 263 3 gusting 14 28.3
2015-Jul-03 11:47 284 3 gusting 14 28.3
2015-Jul-03 11:42 275 4 gusting 16 28.3
2015-Jul-03 11:37 275 4 gusting 16 28.3
2015-Jul-03 11:32 276 3 gusting 16 28.3
2015-Jul-03 11:27 304 2 gusting 11 28.3
2015-Jul-03 11:22 229 2 gusting 15 28.3
2015-Jul-03 11:17 300 3 gusting 17 28.3
2015-Jul-03 11:12 28.3
2015-Jul-03 11:07 344 5 gusting 17 28.3
2015-Jul-03 11:02 279 5 gusting 18 28.3
2015-Jul-03 10:57 269 5 gusting 18 28.3
2015-Jul-03 10:52 263 5 gusting 18 28.3
2015-Jul-03 10:47 267 5 gusting 13 28.3
2015-Jul-03 10:42 250 3 gusting 15 28.3
2015-Jul-03 10:37 269 3 gusting 15 28.3
2015-Jul-03 10:32 331 4 gusting 15 28.3
2015-Jul-03 10:27 221 3 gusting 11 28.3
2015-Jul-03 10:22 281 3 gusting 11 28.3
2015-Jul-03 10:17 298 3 gusting 22 28.3
2015-Jul-03 10:12 272 4 gusting 20 27.8
2015-Jul-03 10:07 312 6 gusting 20 27.8
2015-Jul-03 10:02 118 5 gusting 20 27.8
2015-Jul-03 09:57 262 5 gusting 20 27.8
2015-Jul-03 09:52 286 5 gusting 16 27.8
2015-Jul-03 09:47 287 4 gusting 16 27.8
2015-Jul-03 09:42 278 4 gusting 19 27.8
2015-Jul-03 09:37 313 3 gusting 19 27.8
2015-Jul-03 09:32 284 4 gusting 17 27.8
2015-Jul-03 09:27 179 5 gusting 17 27.2
2015-Jul-03 09:22 297 5 gusting 22 27.2
2015-Jul-03 09:17 281 5 gusting 22 27.2
2015-Jul-03 09:12 306 4 gusting 16 27.2
2015-Jul-03 09:07 305 5 gusting 17 27.2
2015-Jul-03 09:02 292 5 gusting 17 27.2
2015-Jul-03 08:57 288 3 gusting 12 27.2
2015-Jul-03 08:52 315 3 gusting 12 27.2
2015-Jul-03 08:47 325 5 gusting 10 27.2
2015-Jul-03 08:42 264 3 gusting 12 27.2
2015-Jul-03 08:37 005 2 gusting 12 27.2
2015-Jul-03 08:32 290 3 gusting 13 26.7
2015-Jul-03 08:27 274 3 gusting 13 26.7
2015-Jul-03 08:22 229 3 gusting 11 26.7
2015-Jul-03 08:17 244 3 gusting 12 26.7
2015-Jul-03 08:12 228 2 gusting 12 26.7
2015-Jul-03 08:07 232 2 gusting 14 26.1
2015-Jul-03 08:02 300 3 gusting 26 26.1
2015-Jul-03 07:57 283 4 gusting 26 26.1
2015-Jul-03 07:52 262 3 gusting 26 26.1
2015-Jul-03 07:47 267 3 gusting 15 26.1
2015-Jul-03 07:42 237 4 gusting 15 25.6
2015-Jul-03 07:37 010 2 gusting 15 25.6
2015-Jul-03 07:32 296 2 gusting 13 25.6
2015-Jul-03 07:27 260 2 gusting 12 25.6
2015-Jul-03 07:22 202 2 gusting 11 25.6
2015-Jul-03 07:17 284 3 gusting 11 25.6
2015-Jul-03 07:12 283 3 gusting 11 25.0
2015-Jul-03 07:07 327 2 gusting 11 25.0
2015-Jul-03 07:02 336 1 gusting 9 25.0
2015-Jul-03 06:57 219 0 gusting 10 25.0
2015-Jul-03 06:52 244 2 gusting 10 25.0
2015-Jul-03 06:47 289 3 gusting 10 24.4
2015-Jul-03 06:42 258 2 gusting 9 24.4
2015-Jul-03 06:37 274 2 gusting 12 24.4
2015-Jul-03 06:32 269 1 gusting 12 24.4
2015-Jul-03 06:27 213 1 gusting 12 24.4
2015-Jul-03 06:22 282 1 gusting 8 24.4
2015-Jul-03 06:17 306 1 gusting 7 25.0
2015-Jul-03 06:12 246 1 gusting 7 25.6
2015-Jul-03 06:07 259 1 gusting 7 25.6
2015-Jul-03 06:02 311 0 gusting 5 26.1
2015-Jul-03 05:57 248 0 gusting 7 26.7
2015-Jul-03 05:52 271 1 gusting 7 26.7
2015-Jul-03 05:47 224 1 gusting 7 26.1
2015-Jul-03 05:42 273 1 gusting 9 25.6
2015-Jul-03 05:37 229 1 gusting 9 25.6
2015-Jul-03 05:32 298 1 gusting 9 25.6
2015-Jul-03 05:27 171 0 gusting 6 25.0
2015-Jul-03 05:22 184 1 gusting 6 25.0
2015-Jul-03 05:17 209 1 gusting 6 24.4
2015-Jul-03 05:12 205 1 gusting 6 23.9
2015-Jul-03 05:07 259 0 gusting 7 23.3
2015-Jul-03 05:02 290 0 gusting 7 22.8
2015-Jul-03 04:57 254 1 gusting 4 22.2
2015-Jul-03 04:52 256 0 gusting 3 21.7
2015-Jul-03 04:47 287 21.1
2015-Jul-03 04:42 238 0 gusting 6 20.6
2015-Jul-03 04:37 257 0 gusting 6 20.6
2015-Jul-03 04:32 209 0 gusting 6 20.6
2015-Jul-03 04:27 236 0 gusting 6 20.6
2015-Jul-03 04:22 221 0 gusting 6 20.6
2015-Jul-03 04:17 265 0 gusting 3 20.6
2015-Jul-03 04:12 257 0 gusting 4 20.6
2015-Jul-03 04:07 205 0 gusting 4 20.0
2015-Jul-03 04:02 276 0 gusting 4 20.0
2015-Jul-03 03:57 244 0 gusting 4 20.0
2015-Jul-03 03:52 269 0 gusting 6 20.0
2015-Jul-03 03:47 206 0 gusting 6 19.4
2015-Jul-03 03:42 252 1 gusting 6 19.4
2015-Jul-03 03:37 240 0 gusting 6 18.9
2015-Jul-03 03:32 207 0 gusting 6 18.3
2015-Jul-03 03:27 252 0 gusting 6 18.3
2015-Jul-03 03:22 225 0 gusting 3 17.8
2015-Jul-03 03:17 264 17.8
2015-Jul-03 03:12 219 0 gusting 2 17.8
2015-Jul-03 03:07 225 0 gusting 4 17.8
2015-Jul-03 03:02 255 0 gusting 4 17.8
2015-Jul-03 02:57 244 0 gusting 4 17.8
2015-Jul-03 02:52 286 0 gusting 2 17.8
2015-Jul-03 02:47 253 17.8
2015-Jul-03 02:42 238 17.2
2015-Jul-03 02:37 269 0 gusting 2 17.2
2015-Jul-03 02:32 269 0 gusting 2 16.7
2015-Jul-03 02:27 213 0 gusting 2 16.7
2015-Jul-03 02:22 310 0 gusting 5 16.1
2015-Jul-03 02:17 261 0 gusting 5 16.1
2015-Jul-03 02:12 265 0 gusting 5 15.6
2015-Jul-03 02:07 270 0 gusting 5 15.6
2015-Jul-03 02:02 264 0 gusting 3 15.6